Location: アルンシュタイン
(50.0000°N, 10.0000°E)
Time: 06:23:56
(UTC+01:00)

Envisat - Pass Details

Date: 31 October 2021
Orbit: 764 x 766 km, 98.2° (Epoch: 04 December)

Event Time Altitude Azimuth Distance (km) Brightness Sun altitude
Rises 04:16:34 0° 26° (NNE) 3,244 6.7 -27.9°
Reaches altitude 10° 04:19:32 10° 43° (NE) 2,312 6.1 -27.4°
Maximum altitude 04:23:11 20° 89° (E) 1,738 5.6 -26.9°
Drops below altitude 10° 04:26:49 10° 135° (SE) 2,299 5.9 -26.3°
Sets 04:29:44 0° 153° (SSE) 3,219 6.5 -25.8°
